Estación Meteorológica Peña el Pijo (Robertgarden) [ 09/28/20 21:25:20 CEST ]

Fecha Hora Presion(HPa) Temp (°C) Humedad % Rocio (°C) Viento ( m/s) Direccion Lluvia 1Hora(mm) Lluvia 24H(mm) LLuvia Total(mm)
2020-May-10 01:09:02 1001.700 - - - - W     39.88
2020-May-10 02:08:41 1000.800 - - - - W     39.88
2020-May-10 03:08:56 1000.200 - - - - W     39.88
2020-May-10 04:09:07 999.800 - - - - W     39.88
2020-May-10 05:09:20 1000.100 - - - - W     39.88
2020-May-10 06:09:16 999.500 - - - - W     39.88
2020-May-10 07:10:55 999.300 - - - - W     39.88
2020-May-10 08:10:36 999.900 - - - - W     39.88
2020-May-10 09:09:49 999.800 - - - - W     39.88
2020-May-10 10:10:16 999.700 - - - - W     39.88
2020-May-10 11:09:20 1000.200 - - - - W     39.88
2020-May-10 12:09:10 1000.300 - - - - W     39.88
2020-May-10 13:09:06 1000.200 - - - - W     39.88
2020-May-10 14:09:12 999.900 - - - - W     39.88
2020-May-10 15:09:26 1000.000 - - - - W     39.88
2020-May-10 16:09:17 1000.100 - - - - W     39.88
2020-May-10 17:09:46 1000.300 - - - - W     39.88
2020-May-10 18:09:38 1000.400 - - - - W     39.88
2020-May-10 19:09:21 1000.200 - - - - W     39.88
2020-May-10 20:09:13 1000.400 - - - - W     39.88
2020-May-10 21:09:16 1000.800 - - - - W     39.88
2020-May-10 22:09:16 1001.400 - - - - W     39.88
2020-May-10 23:08:57 1001.900 - - - - W     39.88

Temperatura Máxima:    Temperatura Mínima:
Presión Máxima:1001.900 Hpa    Presión Mínima:999.300 Hpa


Volver